Location: Erdweis
(48.5167°N, 15.3500°E)
Time: 17:28:24
(UTC+00:00)

Cosmos 1626 - Pass Details

Date: 18 September 2020
Orbit: 490 x 495 km, 82.5° (Epoch: 28 October)

Event Time Altitude Azimuth Distance (km) Brightness Sun altitude
Rises 20:13:00 0° 342° (NNW) 2,590 6.6 -29.3°
Reaches altitude 10° 20:15:15 10° 332° (NNW) 1,701 5.6 -29.6°
Enters shadow 20:17:08 24° 311° (NW) 1,071 4.4 -29.8°
